Location: Rounton
(54.4000°N, 1.3500°W)
Time: 13:45:56
(UTC+00:00)

Transit 2A - Pass Details

Date: 06 December 2021
Orbit: 591 x 967 km, 66.7° (Epoch: 21 January)

Event Time Altitude Azimuth Distance (km) Brightness Sun altitude
Rises 02:39:10 0° 267° (W) 3,481 - -46.0°
Reaches altitude 10° 02:41:53 10° 278° (W) 2,593 - -45.6°
Maximum altitude 02:47:19 32° 341° (NNW) 1,559 - -44.9°
Exits shadow 02:51:19 17° 33° (NNE) 2,217 8.7 -44.4°
Drops below altitude 10° 02:53:00 10° 43° (NE) 2,713 9.4 -44.2°
Sets 02:55:55 0° 53° (NE) 3,665 10.3 -43.8°
